Vertical_Velocity
-1 -2 -4 -3 -3 -2 -2 -0 1 1 0 0 -0 -0 -0 -0 -1 -1 -1 -1 -1 -0 -0 -0 -0 -0 -0 -0 -0 -1 -1 -1 -1 -1 -1 -1 -2 -2 -3 -3 -3 -3 -4 -4 -4 -4 -4 -4 -4 -4 -4 -4 -4 -4 -4 -5 -5 -5 -4 -4 -4 -3 -3 -3 -4 -4 -4 -5 -5 -5 -5 -5 -5 -5 -5 -5 -5 -4 -4 -4 -4 -3 -3 -3 -2 -2
-2 -2 -3 -3 -3 -3 -3 -1 0 1 -0 -0 -0 -0 -0 -0 -0 -1 -1 -1 -1 -1 -1 -0 -0 -0 -0 -0 -1 -1 -1 -1 -1 -1 -1 -1 -2 -2 -3 -3 -3 -3 -4 -4 -4 -4 -4 -4 -4 -4 -4 -4 -5 -5 -5 -6 -6 -5 -5 -4 -4 -3 -3 -4 -4 -4 -5 -5 -6 -6 -6 -6 -6 -6 -5 -5 -5 -5 -5 -5 -4 -4 -4 -4 -4 -4
-2 -2 -2 -2 -2 -2 -3 -2 -1 -0 -0 -0 -0 -0 0 0 0 0 -0 -1 -1 -1 -0 -0 -0 -0 -0 -1 -1 -1 -1 -1 -1 -1 -1 -1 -2 -2 -3 -3 -3 -3 -3 -3 -3 -3 -4 -4 -4 -4 -5 -5 -5 -5 -6 -6 -6 -6 -5 -4 -4 -3 -3 -4 -4 -5 -5 -5 -5 -5 -5 -6 -6 -6 -6 -6 -6 -5 -5 -5 -5 -5 -5 -5 -5 -5
-1 -2 -2 -2 -2 -2 -2 -2 -1 -1 -0 -1 -1 -0 0 0 0 0 0 0 0 -0 -0 -0 -0 -1 -1 -1 -1 -1 -1 -1 -1 -1 -1 -2 -2 -2 -2 -2 -3 -3 -3 -3 -3 -3 -4 -4 -4 -5 -5 -5 -5 -5 -6 -6 -6 -6 -5 -4 -4 -3 -3 -4 -4 -5 -5 -5 -5 -5 -5 -5 -5 -6 -6 -6 -6 -6 -6 -6 -6 -6 -6 -6 -6 -6
-1 -2 -2 -1 -1 -2 -2 -1 -1 -1 -1 -1 -1 -1 -0 0 0 0 0 1 1 1 0 -0 -0 -1 -1 -1 -1 -2 -2 -2 -2 -2 -2 -2 -2 -2 -2 -2 -2 -2 -2 -3 -3 -4 -4 -4 -5 -5 -5 -5 -5 -5 -6 -6 -6 -6 -6 -5 -4 -4 -4 -4 -4 -4 -4 -4 -4 -4 -5 -5 -5 -6 -6 -6 -6 -6 -6 -7 -7 -7 -7 -7 -7 -7
-2 -1 -1 -0 -0 -1 -1 -1 -1 -1 -1 -1 -1 -1 -0 0 0 1 1 1 1 0 0 -0 -0 -1 -1 -1 -1 -1 -2 -2 -2 -2 -2 -2 -2 -2 -2 -2 -2 -2 -3 -3 -4 -4 -4 -5 -5 -5 -5 -5 -5 -6 -6 -7 -8 -8 -7 -6 -5 -4 -4 -4 -4 -4 -4 -4 -4 -5 -5 -5 -6 -6 -6 -6 -6 -7 -7 -8 -8 -8 -9 -9 -8 -8
-2 -1 -0 -0 -0 -1 -0 -0 -0 -0 -0 -1 -1 -1 -1 -0 1 1 1 1 1 0 -0 -0 -1 -1 -1 -1 -1 -1 -1 -2 -2 -1 -1 -1 -2 -2 -2 -2 -2 -3 -3 -4 -4 -4 -5 -5 -5 -5 -5 -5 -6 -6 -8 -9 -9 -9 -8 -7 -5 -4 -4 -4 -4 -4 -4 -4 -5 -5 -6 -6 -6 -6 -7 -7 -7 -8 -8 -9 -9 -9 -10 -10 -10 -9
-2 -1 -0 -0 -1 -1 -1 -1 -0 0 0 -0 -0 -1 -1 -0 0 1 0 0 0 0 -0 -1 -1 -2 -2 -2 -2 -1 -1 -1 -1 -2 -2 -2 -2 -2 -2 -3 -3 -3 -4 -4 -4 -5 -5 -6 -6 -6 -6 -6 -6 -7 -9 -10 -10 -10 -9 -7 -5 -4 -4 -4 -4 -4 -5 -5 -6 -6 -7 -7 -7 -7 -7 -8 -8 -8 -9 -9 -10 -10 -10 -10 -10 -10
-1 -1 -1 -0 -0 -0 -1 -1 -1 -0 0 0 1 1 1 0 0 -0 -1 -1 -1 -0 0 -0 -1 -3 -4 -3 -2 -2 -1 -1 -1 -1 -2 -2 -2 -3 -3 -3 -4 -4 -4 -4 -5 -5 -6 -6 -6 -6 -6 -6 -7 -8 -9 -10 -10 -10 -8 -5 -4 -3 -3 -4 -4 -5 -6 -6 -7 -7 -7 -7 -8 -8 -8 -8 -8 -9 -9 -10 -10 -10 -10 -10 -10 -10
-1 -1 -1 -1 -0 0 0 -1 -1 -1 -0 0 1 2 3 3 2 0 -1 -2 -2 -2 -1 -0 -1 -2 -4 -4 -4 -3 -2 -1 -1 -0 -0 -1 -2 -2 -3 -3 -3 -4 -4 -4 -5 -6 -6 -7 -7 -6 -6 -6 -6 -7 -8 -8 -8 -8 -6 -4 -3 -2 -3 -3 -4 -5 -5 -6 -6 -7 -7 -7 -7 -8 -8 -8 -8 -9 -9 -10 -10 -10 -11 -10 -10 -10
-1 -1 -1 -1 -1 -1 0 -0 -1 -1 0 0 1 1 2 3 3 2 1 -1 -2 -3 -3 -2 -1 -1 -2 -4 -4 -4 -2 -2 -2 -2 -2 -2 -2 -3 -3 -2 -2 -2 -3 -3 -4 -5 -6 -6 -6 -6 -5 -5 -5 -5 -6 -7 -6 -6 -4 -3 -2 -2 -2 -3 -4 -4 -4 -5 -5 -6 -6 -6 -7 -7 -7 -8 -8 -9 -10 -10 -11 -11 -11 -11 -11 -10
-1 -1 -1 -1 -1 -1 -1 -1 -1 -0 1 1 1 1 0 0 1 2 2 1 0 -0 -1 -2 -2 -2 -2 -2 -3 -4 -3 -2 -2 -2 -2 -4 -4 -4 -4 -3 -3 -2 -3 -3 -4 -5 -6 -6 -5 -4 -3 -4 -3 -3 -4 -5 -5 -5 -4 -2 -2 -2 -2 -2 -2 -3 -3 -4 -4 -5 -6 -6 -6 -6 -7 -7 -8 -9 -10 -11 -12 -12 -12 -12 -12 -11
-1 -0 -1 -1 -1 -1 -1 -0 -0 -0 1 2 2 2 0 -1 -0 1 2 2 2 2 2 1 -1 -4 -5 -4 -3 -2 -2 -1 -1 -0 -0 -3 -4 -5 -4 -3 -2 -2 -2 -2 -3 -4 -5 -5 -3 -1 -0 -2 -3 -2 -2 -4 -4 -4 -4 -3 -2 -2 -1 -1 -2 -2 -3 -4 -4 -5 -6 -6 -6 -6 -6 -7 -8 -8 -10 -11 -12 -12 -13 -13 -12 -11
-1 -1 -0 -1 -1 -1 -1 -0 1 1 1 2 2 2 1 0 0 1 1 1 1 2 3 3 1 -2 -6 -7 -6 -4 -1 -1 0 1 1 -1 -3 -4 -3 -1 0 1 0 -1 -1 -2 -2 -2 -2 -1 1 0 -1 -2 -3 -4 -4 -4 -4 -3 -2 -2 -1 -1 -2 -2 -3 -4 -5 -6 -6 -6 -6 -6 -7 -7 -7 -8 -9 -10 -11 -12 -12 -12 -11 -11
-0 -0 -0 -1 -1 -1 -1 0 1 1 1 2 2 2 1 0 -0 0 1 1 0 0 1 1 0 -2 -4 -6 -7 -6 -3 -1 1 2 3 0 -2 -4 -3 -1 1 2 3 1 -1 -1 -0 0 0 -0 1 0 -0 -2 -3 -4 -4 -5 -4 -4 -3 -2 -2 -2 -2 -3 -4 -5 -5 -6 -6 -6 -7 -7 -7 -8 -8 -8 -9 -10 -10 -10 -11 -10 -10 -9
-0 0 0 -1 -1 -1 -1 1 1 2 2 2 2 2 1 -0 -1 -1 0 0 0 1 2 1 -0 -2 -6 -9 -10 -8 -5 -2 1 4 6 3 -1 -3 -2 -1 1 3 4 3 0 -1 -1 1 1 1 1 -0 -1 -2 -3 -4 -4 -5 -5 -4 -4 -3 -3 -3 -3 -3 -4 -5 -5 -6 -6 -7 -7 -7 -8 -8 -8 -9 -9 -10 -10 -10 -10 -9 -9 -8
-0 -0 -0 -0 -0 -0 -1 0 1 2 2 2 1 1 1 -0 -1 -1 -0 -0 -0 0 1 2 3 2 -1 -8 -13 -13 -8 -4 -1 3 7 6 2 -0 -1 1 2 3 4 3 1 -0 -1 0 1 1 1 -0 -1 -3 -3 -4 -4 -5 -5 -5 -5 -5 -4 -3 -3 -3 -4 -5 -5 -6 -7 -7 -8 -8 -9 -9 -9 -9 -9 -9 -9 -9 -8 -8 -8 -7
-1 -1 -1 0 0 0 -0 0 1 1 2 1 0 -1 -2 -1 -1 -1 -0 -0 -0 0 -0 -0 1 3 5 1 -6 -12 -9 -4 -2 1 6 7 5 2 0 1 2 4 5 2 1 -0 0 1 1 1 -0 -1 -2 -2 -3 -3 -4 -4 -5 -6 -6 -6 -5 -4 -4 -4 -4 -5 -6 -6 -7 -8 -9 -9 -9 -9 -9 -9 -9 -9 -8 -8 -8 -7 -7 -7
-1 -1 -0 0 0 0 1 1 1 1 1 1 -0 -1 -1 -2 -2 -2 -1 -1 -0 0 1 1 1 1 3 2 -2 -6 -6 -3 -1 2 6 8 7 4 1 0 1 2 4 2 0 -1 0 1 2 1 -0 -1 -2 -2 -2 -2 -3 -4 -5 -6 -7 -7 -7 -6 -6 -6 -6 -6 -7 -7 -8 -9 -9 -10 -10 -10 -10 -9 -9 -9 -8 -8 -8 -7 -7 -7
-1 -1 -1 0 1 1 1 1 1 1 1 0 0 1 0 -1 -1 -1 -2 -2 -1 -1 -0 1 1 0 1 -0 -3 -5 -5 -3 -2 1 5 9 8 6 3 2 1 2 3 2 1 -0 -0 1 2 2 -0 -1 -1 -1 -2 -2 -2 -3 -4 -6 -7 -8 -8 -9 -9 -9 -9 -9 -9 -9 -10 -10 -10 -10 -10 -10 -10 -9 -9 -9 -9 -8 -8 -8 -8 -7
-0 -1 -2 1 2 3 2 1 -0 -0 0 0 1 1 0 -0 -0 -1 -2 -2 -2 -2 -1 -0 -0 -1 -0 -0 -2 -4 -5 -4 -2 -1 2 7 8 6 3 1 1 2 3 2 1 1 0 1 2 2 1 -1 -1 -1 -1 -1 -2 -3 -4 -5 -6 -8 -9 -10 -10 -11 -12 -12 -12 -11 -11 -12 -11 -11 -10 -10 -10 -9 -9 -9 -9 -8 -8 -8 -8 -8
0 -1 -1 1 3 4 2 1 -0 -1 -0 1 1 1 1 1 0 -1 -3 -2 -2 -2 -1 -0 -0 -1 -0 -0 -2 -4 -4 -4 -3 -2 1 5 7 7 5 1 0 1 2 1 0 1 2 2 1 1 1 0 -1 -1 -2 -2 -3 -3 -4 -5 -6 -6 -8 -9 -10 -11 -12 -12 -12 -12 -12 -12 -12 -12 -11 -10 -10 -10 -10 -9 -9 -9 -8 -8 -8 -7
1 1 1 2 3 3 2 1 -0 -1 -0 1 1 1 1 2 2 1 -1 -1 -1 -1 0 0 -0 -1 -1 -2 -3 -4 -5 -6 -6 -4 -0 4 7 8 6 2 1 1 2 2 -0 -0 2 4 3 1 -0 -0 -1 -1 -2 -2 -3 -4 -4 -4 -5 -5 -6 -6 -7 -8 -8 -8 -8 -9 -10 -11 -12 -12 -12 -12 -12 -12 -12 -11 -11 -10 -9 -9 -8 -7
2 2 2 3 3 2 2 1 0 -0 -0 -0 0 0 0 1 1 0 -0 -0 -0 -0 0 0 -0 -2 -3 -3 -3 -4 -7 -7 -8 -7 -4 2 6 8 7 3 1 1 2 3 2 1 2 4 4 2 -0 -1 -1 -1 -2 -2 -3 -4 -4 -4 -4 -4 -3 -4 -4 -4 -4 -4 -4 -5 -7 -8 -9 -10 -11 -11 -12 -12 -12 -13 -13 -12 -12 -11 -10 -9
3 3 3 3 3 2 2 1 0 -0 -0 -0 -0 -0 -1 -1 -1 -2 -3 -3 -2 -1 -1 0 1 0 -1 -0 -0 -2 -7 -8 -8 -7 -5 -1 4 7 7 3 1 1 1 3 3 2 2 3 3 2 -0 -1 -1 -1 -2 -2 -2 -3 -3 -3 -2 -2 -1 -1 -2 -2 -2 -2 -2 -3 -4 -5 -6 -6 -6 -7 -7 -7 -8 -9 -10 -11 -12 -12 -12 -10
4 4 4 3 2 2 1 0 -0 -0 -0 0 0 -0 -0 -1 -1 -2 -3 -4 -3 -2 -1 0 1 1 1 3 2 -0 -5 -8 -9 -8 -5 -1 2 5 5 2 0 -0 -0 2 3 3 1 2 3 2 -0 -0 0 1 0 -1 -2 -2 -2 -2 -1 -0 -0 -1 -1 -2 -2 -1 -2 -2 -3 -3 -3 -3 -3 -2 -1 -0 -0 -1 -2 -4 -6 -7 -8 -8
3 3 3 2 2 1 1 0 -0 -1 -1 -1 -0 -0 0 0 0 -0 -2 -3 -2 -1 0 1 1 1 2 4 3 1 -2 -7 -10 -10 -6 -1 1 2 2 2 0 -1 -2 0 3 5 3 2 2 2 1 -0 0 1 2 0 -1 -2 -1 -1 -0 -0 -0 -1 -2 -2 -1 -0 -0 -1 -1 -1 -1 -1 -0 1 2 3 4 3 2 0 -1 -3 -4 -5
3 3 3 2 2 1 1 0 -0 -1 -1 -1 -1 -0 0 1 2 1 -1 -1 -1 -0 0 1 1 2 3 4 4 2 -0 -6 -10 -10 -5 -1 1 1 1 0 -0 -0 -1 -1 2 6 7 3 1 1 1 1 1 1 1 1 0 -1 -1 -0 0 -0 -1 -1 -1 -1 1 1 2 1 0 -0 -0 -0 0 1 2 3 4 3 2 0 -1 -2 -3 -4
3 3 3 2 2 2 1 1 0 -0 -0 -1 -1 -1 -0 1 2 2 -0 -0 0 1 -0 -0 0 1 2 4 4 4 1 -6 -10 -10 -5 -1 -1 -1 2 0 -1 -2 -3 -4 0 6 11 6 2 -1 -1 2 3 3 1 1 1 0 -1 -0 1 1 1 -1 -0 0 2 3 3 2 1 0 -0 -0 0 1 2 3 3 2 0 -1 -4 -3 -3 -3
2 2 2 2 2 2 2 1 1 0 -0 -0 -0 -1 -1 0 1 1 -0 -0 1 1 -0 -1 -1 -0 -0 1 2 2 0 -6 -10 -10 -5 -2 -2 -2 0 0 -0 -1 -3 -7 -6 -0 9 12 8 2 -3 -1 2 3 2 1 1 1 1 0 1 2 2 1 1 1 3 3 3 3 1 0 -0 -1 0 1 2 3 3 2 -0 -2 -5 -5 -5 -4
1 1 1 1 1 2 2 2 1 1 0 -0 -0 -0 -1 -0 -0 0 -0 0 1 1 1 0 -0 -0 -1 1 2 2 0 -5 -9 -9 -4 -2 -2 -1 2 -0 -1 -2 -1 -4 -7 -8 -4 7 13 12 4 0 1 3 4 2 -0 -1 1 1 1 1 2 1 1 1 3 4 4 3 2 -0 -1 -1 0 2 3 3 3 2 0 -2 -5 -6 -6 -5
1 1 1 1 1 1 1 1 1 1 0 -0 -1 -1 -1 -1 -0 -0 0 0 1 1 1 1 0 -0 -0 1 2 2 0 -4 -7 -7 -2 -2 -3 -2 2 1 -1 -2 -1 -1 -3 -6 -9 -4 4 11 12 6 3 2 4 4 1 -1 -2 -0 0 1 2 1 0 0 2 4 4 3 3 0 -0 -0 1 2 3 4 4 3 1 -1 -4 -6 -6 -6
1 1 1 1 1 1 1 1 0 0 -0 -0 -1 -1 -1 -1 -1 -0 -0 0 1 1 1 1 1 0 -0 0 1 0 -0 -4 -6 -6 -3 -2 -2 -2 1 2 0 -1 -1 -0 -0 -1 -4 -5 -3 2 7 9 8 4 2 2 2 1 -1 -2 -3 -2 1 1 1 -0 1 2 3 2 2 1 0 1 2 4 4 5 5 4 2 -1 -3 -5 -6 -7
1 1 1 1 1 0 0 0 -0 -0 -0 -1 -1 -1 -1 -1 -1 -1 -1 -1 -0 0 1 1 1 1 0 0 0 0 -1 -4 -6 -6 -4 -2 -2 -2 1 2 1 -1 -1 -0 -0 -1 -2 -1 -1 -2 -3 4 8 9 4 -0 -1 -0 1 -0 -3 -4 -3 -1 -1 -1 -0 2 2 1 0 -0 -0 0 2 4 4 5 5 4 2 0 -2 -4 -6 -7
-0 -0 -0 -0 -0 -0 -0 -1 -1 -1 -1 -1 -1 -1 -1 -1 -1 -1 -1 -1 -1 -1 -0 1 1 1 1 1 0 0 -0 -2 -4 -5 -4 -3 -3 -2 -0 1 1 -0 -1 -0 1 0 -3 -2 -0 -0 -5 -4 2 8 9 3 -1 -4 -3 -1 -1 -2 -3 -3 -4 -4 -3 -0 1 1 -0 -1 -2 -2 -1 2 4 5 5 4 2 0 -1 -2 -4 -5
-1 -1 -1 -1 -1 -1 -1 -1 -1 -1 -2 -2 -2 -1 -1 -1 -0 -0 -0 -1 -1 -1 -1 -0 -0 0 0 0 0 -0 -1 -2 -2 -3 -4 -4 -3 -2 -1 -0 1 -0 -3 -3 -2 -0 -2 -3 -1 -0 -1 -5 -5 -2 4 6 4 0 -3 -3 -2 -1 -0 -1 -2 -3 -4 -3 -1 -1 -2 -3 -4 -4 -3 -0 2 4 5 4 2 0 -2 -2 -2 -3
-1 -2 -2 -2 -1 -1 -1 -2 -2 -2 -2 -2 -2 -2 -1 -1 -1 -1 -1 -1 -1 -1 -1 -1 -1 -1 -1 -2 -2 -1 -2 -2 -2 -3 -4 -4 -4 -3 -2 -2 -1 -1 -2 -5 -6 -5 -4 -6 -6 -4 -2 -2 -4 -5 -6 -3 -0 1 0 0 0 -1 -2 -1 -1 -0 -2 -2 -2 -2 -3 -5 -6 -6 -4 -1 2 4 5 5 3 1 -1 -2 -2 -1
-1 -2 -2 -2 -2 -1 -1 -2 -2 -2 -2 -2 -2 -2 -1 -1 -1 -1 -1 -1 -1 -1 -1 -1 -1 -1 -1 -2 -3 -3 -3 -3 -3 -4 -4 -5 -5 -5 -5 -5 -4 -3 -3 -5 -7 -8 -8 -8 -9 -9 -8 -6 -3 -1 -2 -3 -4 -5 -5 -0 3 4 2 -0 -1 -2 -2 -3 -3 -3 -4 -4 -5 -5 -5 -2 1 4 4 4 3 1 -1 -2 -1 0
-1 -1 -2 -2 -2 -2 -1 -2 -2 -2 -2 -2 -2 -1 -1 -1 -1 -1 -1 -1 -1 -1 -1 -0 0 0 -0 -1 -2 -3 -3 -3 -3 -4 -5 -6 -6 -6 -6 -6 -6 -6 -5 -5 -6 -8 -9 -9 -9 -8 -9 -9 -8 -5 -2 -2 -3 -6 -8 -5 -1 4 7 5 3 1 -0 -2 -4 -6 -7 -5 -4 -3 -3 -1 1 3 3 2 2 1 -1 -3 -2 -0
-1 -1 -2 -2 -2 -1 -1 -1 -2 -2 -2 -2 -2 -2 -2 -1 -2 -2 -2 -2 -2 -2 -1 -0 1 1 1 0 -1 -2 -2 -3 -3 -4 -5 -6 -6 -6 -6 -6 -6 -7 -6 -6 -6 -6 -7 -9 -9 -8 -7 -8 -8 -6 -3 -3 -5 -8 -9 -8 -6 -2 4 6 4 1 1 0 -2 -5 -8 -8 -5 -3 -0 1 3 4 3 1 -0 -0 -1 -3 -4 -2
-1 -2 -2 -3 -3 -2 -2 -2 -2 -2 -2 -2 -2 -3 -3 -2 -2 -2 -3 -3 -3 -3 -2 -1 -0 0 0 -0 -1 -3 -4 -4 -4 -4 -5 -6 -6 -6 -6 -6 -5 -5 -5 -5 -4 -4 -5 -6 -7 -7 -6 -8 -9 -8 -4 -2 -2 -5 -8 -9 -8 -4 3 7 5 1 -4 -4 -3 -3 -5 -6 -5 -2 1 3 4 4 4 2 -0 -2 -3 -3 -3 -2
-1 -2 -2 -2 -2 -2 -3 -2 -2 -2 -2 -2 -2 -2 -3 -2 -1 -0 -1 -1 -2 -2 -2 -1 -0 0 0 -1 -1 -2 -3 -4 -5 -5 -5 -5 -5 -5 -4 -4 -4 -4 -4 -3 -2 -1 -0 -2 -4 -5 -5 -5 -6 -7 -8 -6 -4 -2 -2 -6 -9 -9 -5 4 8 7 0 -4 -5 -5 -4 -4 -3 -0 3 5 5 5 4 2 0 -2 -4 -4 -3 -1
-2 -2 -2 -2 -2 -2 -2 -2 -2 -3 -3 -3 -3 -3 -3 -2 -0 0 1 1 0 -0 -0 0 1 1 1 -0 -0 -0 -0 -1 -2 -3 -4 -4 -4 -3 -3 -2 -2 -2 -2 -3 -3 -2 1 2 1 -2 -6 -6 -6 -5 -5 -5 -5 -5 -4 -4 -5 -7 -9 -6 -1 3 4 1 -0 -1 -2 -2 -0 2 5 6 6 4 3 2 -0 -2 -4 -4 -3 -1
-2 -2 -2 -2 -2 -2 -2 -2 -2 -2 -2 -3 -3 -3 -3 -2 -1 0 1 1 1 0 0 -0 0 1 2 0 0 1 1 1 1 -0 -1 -2 -2 -3 -3 -3 -3 -2 -0 -1 -2 -4 -4 -2 -0 1 -0 -4 -6 -8 -9 -8 -5 -4 -3 -3 -3 -2 -1 -2 -3 -3 -2 -0 1 2 1 -0 -0 1 3 6 6 3 1 -0 -1 -2 -3 -3 -2 -1
-1 -1 -2 -2 -1 -1 -1 -2 -2 -2 -2 -2 -2 -2 -2 -1 -1 0 1 0 0 0 -0 -0 -0 0 1 1 1 1 2 2 1 1 -0 -1 -1 -1 -2 -3 -3 -4 -3 -2 -1 -0 -1 -2 -3 -2 -2 -1 -2 -3 -6 -9 -9 -7 -3 -0 0 1 1 2 1 -1 -2 -2 -0 1 2 1 1 0 -1 1 3 3 1 -1 -3 -3 -3 -2 -1 -0
-1 -1 -2 -2 -2 -1 -1 -1 -1 -1 -1 -2 -2 -2 -1 -1 -0 0 0 0 0 -0 -0 -0 -0 0 -0 -0 0 1 2 2 2 2 0 -0 -1 -1 -1 -1 -2 -2 -3 -3 -3 -1 0 1 -0 -2 -4 -5 -5 -3 -1 -3 -6 -8 -6 -1 2 3 3 4 3 2 -0 -0 -1 -1 -1 -1 -1 -1 -0 -1 -0 0 0 -1 -3 -4 -4 -2 -1 0
-1 -1 -1 -2 -1 -1 -2 -1 -1 -0 -1 -1 -2 -2 -1 -1 -0 0 -0 -0 0 0 -0 -0 0 0 -0 -0 -0 -0 0 1 1 1 1 0 -0 -0 -1 -2 -2 -2 -1 -1 -1 -1 -1 0 0 -0 -2 -5 -6 -6 -4 -2 -2 -3 -3 -1 1 3 5 5 3 2 0 0 -1 -2 -4 -5 -6 -6 -3 -1 -0 -0 -0 -1 -2 -3 -4 -3 -1 0
-1 -1 -1 -1 -1 -1 -1 -1 -0 0 0 -1 -1 -1 -1 -1 -0 0 -0 -0 -0 -0 -0 -0 0 0 0 -0 -0 -0 -0 -0 -1 -1 -1 -1 -1 -1 -1 -2 -2 -2 -2 -1 -0 1 2 3 3 2 -1 -4 -5 -5 -3 -2 -1 -1 -0 1 2 2 3 3 2 1 -1 -1 -2 -3 -4 -5 -6 -7 -7 -4 -2 -0 -0 -0 -1 -2 -3 -2 -1 0
0 0 -0 -0 -0 -0 -1 -1 -0 0 1 0 -0 -1 -2 -1 -1 -0 -0 -0 -0 -0 -0 -0 0 1 1 0 -0 -0 -1 -1 -2 -2 -3 -3 -3 -2 -2 -3 -3 -3 -2 -1 -0 0 2 4 6 6 3 -2 -5 -7 -5 -3 -1 -0 -0 1 1 1 -0 -1 -1 -1 -1 -3 -4 -4 -5 -5 -6 -6 -7 -6 -4 -2 -1 0 0 -0 -1 -1 -0 -0
0 0 0 1 1 0 -0 0 0 1 1 1 1 0 -0 -1 -1 -1 -1 -1 -0 -0 -0 -0 0 0 1 1 0 -0 -1 -2 -3 -3 -3 -3 -3 -3 -3 -3 -3 -3 -2 -1 0 1 2 4 5 6 4 -0 -5 -8 -11 -10 -7 -3 -0 0 0 -0 -1 -2 -2 -2 -2 -3 -5 -6 -6 -6 -6 -6 -7 -6 -5 -3 -1 0 1 0 -0 -0 -0 -1
0 0 1 1 1 1 1 1 1 1 1 1 1 1 1 0 -0 -0 -0 -0 -0 0 0 1 0 0 -0 -0 -0 -0 -1 -3 -3 -3 -3 -3 -3 -3 -3 -3 -3 -3 -3 -2 -1 1 2 4 5 6 4 -0 -4 -7 -10 -13 -12 -8 -4 -0 1 1 -1 -1 -2 -1 -1 -3 -5 -6 -7 -6 -5 -5 -6 -6 -5 -3 -1 1 1 1 0 -0 -1 -3
Height
5689 5688 5687 5686 5686 5685 5684 5683 5682 5681 5680 5679 5678 5677 5676 5675 5674 5673 5672 5671 5670 5669 5668 5666 5665 5664 5663 5661 5660 5658 5657 5655 5653 5651 5650 5648 5646 5644 5641 5639 5637 5635 5633 5631 5629 5627 5625 5623 5621 5619 5617 5615 5612 5610 5608 5606 5603 5601 5599 5596 5593 5591 5588 5585 5582 5580 5577 5574 5571 5569 5566 5564 5561 5558 5556 5553 5551 5548 5546 5543 5541 5539 5536 5534 5532 5529
5686 5685 5683 5682 5682 5681 5680 5679 5679 5678 5677 5676 5675 5674 5673 5672 5671 5670 5669 5668 5666 5665 5664 5663 5661 5660 5659 5657 5656 5654 5653 5651 5649 5647 5645 5643 5641 5639 5637 5635 5632 5630 5628 5626 5624 5622 5620 5618 5616 5613 5611 5609 5606 5604 5601 5599 5597 5595 5592 5590 5587 5584 5581 5579 5576 5573 5570 5567 5564 5562 5559 5556 5554 5551 5548 5546 5543 5540 5538 5535 5532 5530 5527 5524 5522 5519
5683 5681 5680 5679 5678 5678 5676 5676 5675 5675 5673 5672 5671 5671 5670 5669 5667 5666 5665 5664 5663 5661 5661 5659 5658 5656 5655 5653 5652 5651 5649 5647 5645 5643 5641 5639 5636 5634 5632 5630 5628 5626 5623 5621 5619 5617 5614 5612 5610 5607 5605 5602 5600 5597 5595 5593 5591 5588 5586 5583 5581 5578 5575 5572 5569 5566 5563 5560 5557 5555 5552 5549 5546 5544 5541 5538 5535 5532 5529 5526 5523 5521 5517 5514 5511 5508
5680 5678 5677 5676 5675 5674 5673 5672 5671 5671 5670 5669 5668 5667 5666 5665 5664 5663 5662 5661 5659 5658 5657 5656 5654 5652 5651 5650 5648 5646 5645 5643 5641 5639 5636 5634 5632 5630 5627 5625 5623 5621 5618 5616 5614 5611 5609 5606 5604 5601 5599 5596 5594 5591 5589 5586 5584 5582 5580 5577 5575 5572 5569 5566 5562 5560 5556 5554 5551 5548 5545 5542 5539 5536 5533 5530 5527 5524 5521 5517 5514 5511 5507 5504 5501 5497
5676 5675 5674 5673 5672 5671 5670 5669 5668 5667 5666 5666 5665 5664 5663 5662 5661 5659 5658 5657 5656 5654 5653 5652 5650 5649 5647 5646 5644 5642 5640 5638 5636 5634 5632 5630 5627 5625 5623 5620 5618 5616 5613 5611 5608 5606 5603 5601 5598 5596 5593 5590 5587 5585 5582 5580 5578 5576 5573 5571 5568 5565 5562 5559 5556 5553 5550 5547 5544 5541 5538 5535 5531 5528 5525 5522 5518 5515 5511 5508 5504 5501 5497 5493 5489 5486
5673 5672 5670 5669 5668 5667 5666 5666 5665 5664 5663 5662 5661 5660 5659 5658 5657 5656 5654 5653 5652 5651 5649 5648 5646 5645 5643 5641 5640 5638 5636 5634 5632 5630 5627 5625 5623 5620 5618 5616 5613 5611 5608 5605 5603 5600 5597 5595 5592 5589 5587 5584 5581 5579 5576 5574 5571 5569 5567 5564 5561 5559 5556 5552 5550 5546 5543 5540 5537 5534 5531 5527 5524 5520 5517 5513 5510 5506 5502 5499 5495 5491 5486 5482 5478 5474
5669 5668 5667 5666 5665 5664 5663 5662 5661 5661 5660 5659 5658 5657 5656 5655 5653 5652 5651 5650 5648 5647 5645 5644 5642 5641 5639 5637 5636 5634 5632 5630 5627 5625 5623 5621 5618 5616 5613 5611 5608 5605 5602 5600 5597 5594 5591 5589 5586 5583 5581 5578 5575 5572 5569 5567 5565 5562 5560 5558 5555 5552 5549 5546 5543 5540 5536 5533 5530 5526 5523 5519 5516 5512 5508 5505 5501 5497 5493 5489 5485 5481 5476 5472 5467 5463
5665 5665 5664 5663 5662 5661 5660 5659 5658 5657 5656 5655 5654 5653 5652 5651 5650 5649 5647 5646 5645 5643 5641 5640 5638 5637 5635 5634 5632 5630 5628 5625 5623 5621 5618 5616 5613 5611 5608 5606 5603 5600 5597 5594 5591 5588 5586 5583 5580 5577 5575 5571 5569 5566 5563 5560 5558 5556 5553 5551 5548 5546 5542 5539 5536 5533 5529 5526 5522 5519 5515 5511 5508 5504 5500 5496 5492 5488 5484 5480 5476 5471 5466 5462 5457 5452
5662 5661 5661 5660 5659 5658 5656 5656 5655 5654 5653 5652 5651 5650 5649 5648 5646 5645 5644 5642 5641 5639 5638 5636 5634 5632 5631 5629 5628 5626 5624 5621 5619 5616 5614 5611 5608 5606 5603 5601 5597 5595 5591 5589 5586 5583 5580 5577 5574 5571 5568 5566 5562 5559 5556 5554 5551 5549 5547 5545 5542 5539 5536 5532 5529 5526 5522 5518 5515 5511 5507 5504 5500 5496 5492 5488 5484 5480 5475 5471 5467 5462 5457 5452 5447 5442
5659 5658 5657 5656 5656 5655 5653 5652 5651 5651 5650 5648 5647 5646 5646 5644 5643 5641 5640 5639 5637 5636 5634 5632 5630 5628 5626 5625 5623 5622 5620 5617 5615 5612 5609 5606 5604 5601 5598 5595 5592 5589 5586 5583 5580 5577 5574 5571 5569 5566 5562 5559 5556 5553 5551 5548 5545 5543 5541 5538 5536 5532 5529 5526 5522 5518 5515 5511 5507 5504 5500 5496 5492 5488 5484 5480 5476 5471 5467 5462 5458 5453 5448 5443 5438 5433
5655 5655 5654 5652 5652 5651 5650 5649 5648 5647 5646 5645 5644 5643 5642 5641 5640 5638 5636 5635 5633 5632 5630 5628 5626 5624 5622 5621 5619 5617 5616 5613 5610 5607 5605 5602 5599 5596 5593 5591 5587 5584 5581 5578 5575 5572 5569 5566 5563 5560 5557 5554 5551 5548 5545 5542 5539 5537 5535 5532 5529 5526 5522 5519 5515 5511 5508 5504 5500 5496 5493 5489 5485 5481 5476 5472 5468 5463 5459 5454 5449 5444 5439 5435 5430 5425
5651 5651 5650 5649 5648 5648 5647 5646 5645 5644 5643 5642 5641 5639 5638 5637 5636 5635 5632 5631 5629 5628 5626 5624 5622 5620 5618 5616 5615 5613 5611 5609 5606 5603 5600 5597 5594 5591 5589 5586 5583 5580 5576 5573 5570 5567 5564 5561 5558 5555 5552 5549 5545 5542 5539 5536 5533 5531 5528 5526 5522 5519 5516 5512 5509 5505 5501 5497 5494 5490 5486 5482 5478 5474 5469 5465 5460 5455 5451 5446 5441 5436 5431 5426 5421 5416
5648 5648 5647 5646 5645 5644 5643 5642 5641 5641 5640 5638 5637 5636 5635 5634 5632 5631 5630 5628 5626 5624 5622 5620 5617 5615 5614 5612 5611 5609 5607 5604 5601 5599 5595 5592 5589 5586 5584 5581 5578 5575 5572 5568 5565 5562 5559 5556 5553 5550 5547 5544 5540 5537 5534 5531 5527 5525 5522 5519 5516 5513 5510 5506 5502 5499 5495 5491 5487 5483 5479 5475 5471 5466 5462 5457 5453 5448 5443 5438 5433 5428 5423 5418 5413 5409
5645 5644 5643 5642 5641 5641 5640 5639 5638 5637 5636 5635 5634 5633 5631 5630 5629 5627 5626 5624 5622 5621 5618 5616 5613 5611 5609 5607 5606 5605 5603 5601 5598 5595 5591 5587 5585 5582 5580 5577 5574 5571 5568 5564 5561 5557 5555 5552 5549 5545 5542 5539 5535 5532 5528 5525 5521 5518 5516 5513 5510 5506 5503 5500 5496 5492 5488 5484 5480 5476 5472 5468 5464 5459 5455 5450 5445 5440 5435 5431 5426 5421 5416 5411 5406 5401
5641 5641 5640 5639 5638 5637 5636 5636 5634 5633 5632 5631 5631 5629 5628 5626 5625 5624 5622 5620 5618 5617 5615 5612 5610 5607 5604 5603 5602 5601 5599 5597 5594 5591 5587 5583 5580 5577 5576 5573 5570 5567 5564 5560 5557 5553 5550 5547 5544 5541 5537 5533 5530 5526 5522 5519 5515 5512 5509 5506 5503 5500 5496 5493 5489 5485 5481 5477 5473 5469 5465 5461 5456 5452 5447 5443 5438 5433 5428 5423 5418 5413 5409 5404 5399 5394
5638 5637 5636 5635 5634 5634 5633 5632 5631 5630 5629 5628 5627 5626 5624 5622 5621 5620 5618 5616 5614 5613 5611 5608 5606 5603 5600 5598 5597 5596 5595 5593 5591 5588 5585 5580 5576 5573 5571 5569 5566 5563 5560 5556 5553 5549 5546 5543 5539 5536 5532 5528 5525 5521 5517 5513 5509 5506 5503 5500 5496 5493 5490 5486 5482 5478 5474 5470 5466 5462 5458 5454 5449 5445 5440 5435 5431 5426 5421 5416 5411 5406 5401 5397 5392 5388
5635 5634 5633 5632 5631 5630 5630 5629 5628 5627 5626 5625 5623 5622 5620 5619 5617 5616 5614 5612 5611 5608 5606 5604 5602 5599 5596 5593 5591 5591 5591 5589 5587 5584 5582 5577 5573 5569 5567 5565 5562 5559 5556 5552 5548 5545 5541 5538 5534 5531 5527 5523 5519 5515 5511 5507 5503 5500 5496 5493 5490 5486 5483 5479 5476 5472 5468 5464 5459 5455 5451 5446 5442 5437 5433 5428 5423 5418 5413 5409 5404 5399 5395 5390 5386 5381
5631 5630 5630 5628 5627 5627 5626 5625 5624 5623 5622 5621 5619 5618 5616 5615 5613 5612 5610 5608 5606 5604 5602 5600 5598 5596 5593 5590 5587 5586 5586 5584 5582 5580 5578 5574 5570 5566 5562 5560 5557 5555 5551 5548 5544 5540 5537 5533 5530 5526 5522 5518 5514 5510 5506 5502 5498 5494 5490 5486 5483 5479 5476 5473 5469 5465 5461 5457 5452 5448 5443 5439 5434 5430 5425 5421 5416 5411 5406 5401 5396 5392 5387 5383 5379 5374
5628 5627 5626 5625 5624 5623 5623 5622 5621 5620 5619 5617 5616 5614 5612 5611 5609 5608 5606 5604 5602 5601 5598 5596 5594 5592 5590 5587 5584 5582 5581 5580 5578 5576 5574 5571 5566 5562 5558 5556 5553 5550 5547 5544 5540 5536 5532 5529 5525 5521 5517 5513 5509 5505 5501 5496 5492 5488 5484 5480 5476 5472 5469 5466 5462 5458 5454 5450 5445 5441 5436 5431 5427 5422 5417 5413 5408 5403 5399 5394 5389 5385 5380 5376 5371 5367
5624 5624 5623 5622 5621 5620 5619 5618 5617 5616 5615 5613 5612 5610 5609 5607 5606 5604 5602 5601 5599 5597 5595 5592 5590 5588 5586 5583 5581 5578 5577 5575 5574 5572 5570 5567 5563 5558 5555 5552 5549 5546 5543 5539 5535 5531 5528 5524 5520 5516 5512 5508 5504 5500 5496 5491 5487 5483 5478 5474 5470 5466 5462 5458 5454 5450 5446 5442 5438 5433 5429 5424 5419 5415 5410 5405 5401 5396 5391 5386 5381 5377 5372 5368 5364 5360
5621 5620 5620 5619 5618 5617 5616 5615 5614 5612 5611 5610 5608 5607 5605 5603 5601 5600 5598 5596 5595 5593 5591 5588 5586 5584 5582 5579 5576 5574 5572 5571 5569 5567 5566 5563 5559 5555 5551 5548 5545 5542 5539 5535 5531 5527 5524 5520 5516 5511 5508 5504 5499 5495 5491 5486 5482 5477 5473 5469 5464 5460 5455 5451 5447 5442 5438 5434 5430 5426 5421 5416 5412 5407 5402 5398 5393 5388 5383 5379 5374 5369 5365 5361 5356 5352
5618 5617 5616 5616 5615 5613 5612 5611 5610 5608 5607 5606 5604 5603 5601 5600 5598 5596 5594 5592 5591 5588 5586 5584 5582 5580 5577 5575 5572 5569 5567 5566 5564 5563 5561 5558 5555 5551 5547 5544 5541 5538 5535 5531 5527 5523 5519 5516 5511 5507 5503 5499 5495 5490 5486 5481 5477 5472 5468 5463 5459 5454 5450 5445 5441 5436 5431 5427 5423 5418 5414 5409 5404 5400 5395 5390 5385 5380 5376 5371 5366 5361 5357 5353 5349 5345
5615 5614 5613 5612 5611 5610 5609 5607 5606 5605 5603 5602 5601 5599 5597 5596 5594 5592 5590 5588 5586 5585 5582 5580 5577 5575 5572 5570 5567 5565 5562 5561 5559 5558 5556 5554 5551 5547 5543 5540 5536 5533 5531 5527 5523 5519 5515 5511 5507 5503 5499 5494 5490 5485 5481 5476 5472 5468 5463 5459 5454 5450 5445 5440 5436 5431 5426 5422 5417 5412 5407 5402 5397 5392 5387 5382 5377 5372 5367 5362 5357 5353 5348 5344 5341 5337
5611 5610 5609 5609 5607 5606 5605 5604 5602 5601 5600 5598 5597 5595 5593 5591 5590 5588 5586 5584 5582 5580 5578 5576 5573 5571 5568 5566 5563 5560 5558 5556 5555 5553 5551 5549 5547 5544 5540 5536 5532 5529 5526 5523 5519 5515 5511 5507 5503 5499 5494 5490 5486 5481 5476 5472 5467 5463 5459 5454 5450 5445 5441 5436 5432 5427 5423 5418 5413 5408 5403 5397 5392 5386 5381 5375 5370 5364 5359 5353 5348 5343 5339 5335 5332 5329
5608 5607 5606 5605 5604 5603 5601 5600 5599 5597 5596 5594 5593 5591 5589 5587 5586 5583 5581 5580 5578 5576 5574 5572 5569 5567 5564 5562 5559 5556 5553 5551 5550 5548 5546 5544 5542 5539 5535 5531 5528 5525 5522 5519 5515 5511 5507 5503 5499 5495 5490 5486 5481 5477 5472 5468 5463 5459 5455 5450 5446 5441 5437 5432 5428 5423 5419 5414 5409 5404 5399 5393 5388 5382 5376 5371 5365 5359 5354 5348 5342 5336 5331 5327 5324 5321
5605 5604 5603 5602 5601 5599 5598 5596 5595 5594 5592 5591 5589 5587 5586 5584 5581 5580 5578 5576 5575 5573 5571 5568 5565 5563 5561 5558 5555 5551 5548 5546 5544 5543 5541 5539 5537 5534 5531 5527 5524 5521 5518 5515 5511 5507 5503 5499 5495 5491 5486 5482 5477 5473 5468 5464 5459 5455 5451 5446 5442 5438 5433 5429 5424 5419 5415 5410 5405 5400 5395 5389 5384 5379 5373 5368 5362 5357 5351 5345 5339 5333 5328 5323 5318 5315
5601 5601 5600 5598 5597 5596 5594 5593 5591 5590 5588 5587 5585 5584 5582 5580 5578 5576 5574 5572 5571 5569 5566 5564 5561 5559 5556 5554 5551 5547 5544 5541 5539 5537 5536 5534 5531 5529 5526 5522 5519 5516 5513 5510 5507 5504 5500 5495 5491 5486 5482 5478 5474 5469 5465 5460 5456 5451 5446 5442 5438 5434 5429 5424 5420 5415 5411 5406 5401 5396 5391 5386 5380 5375 5370 5365 5360 5354 5349 5343 5337 5331 5325 5320 5315 5311
5598 5597 5596 5595 5593 5592 5591 5589 5588 5586 5585 5583 5582 5580 5578 5576 5575 5572 5570 5569 5567 5564 5562 5560 5557 5555 5552 5549 5546 5543 5540 5536 5534 5532 5531 5529 5526 5524 5521 5518 5514 5511 5509 5506 5503 5501 5497 5491 5487 5482 5478 5474 5470 5466 5461 5456 5452 5447 5443 5438 5434 5430 5425 5420 5416 5411 5407 5402 5397 5392 5387 5382 5376 5371 5366 5361 5356 5350 5345 5339 5332 5326 5321 5316 5311 5306
5595 5594 5592 5591 5590 5589 5587 5586 5584 5583 5581 5580 5578 5576 5575 5573 5571 5569 5566 5565 5563 5560 5557 5555 5553 5550 5548 5545 5542 5539 5535 5531 5529 5528 5526 5524 5521 5519 5516 5513 5510 5506 5504 5501 5499 5497 5494 5489 5483 5478 5474 5470 5466 5462 5457 5452 5448 5443 5439 5435 5431 5426 5421 5416 5412 5407 5403 5398 5393 5388 5383 5377 5372 5367 5362 5357 5351 5346 5340 5333 5327 5321 5315 5310 5305 5301
5591 5590 5589 5588 5587 5585 5584 5582 5581 5579 5578 5576 5574 5573 5571 5569 5567 5565 5563 5561 5558 5556 5553 5551 5548 5546 5543 5541 5538 5534 5531 5527 5525 5523 5521 5519 5517 5514 5512 5508 5504 5501 5499 5496 5493 5491 5490 5486 5481 5476 5470 5466 5462 5458 5453 5448 5443 5439 5435 5431 5427 5422 5417 5412 5408 5403 5399 5395 5389 5384 5379 5373 5368 5362 5357 5352 5346 5341 5335 5328 5321 5314 5308 5303 5298 5294
5588 5587 5586 5585 5583 5582 5580 5579 5577 5576 5574 5572 5571 5569 5567 5565 5563 5561 5559 5556 5554 5552 5549 5546 5544 5541 5539 5536 5533 5530 5526 5523 5520 5518 5517 5515 5512 5510 5507 5503 5500 5496 5493 5491 5488 5485 5483 5482 5479 5474 5468 5462 5458 5453 5449 5444 5440 5435 5431 5426 5422 5418 5414 5409 5404 5399 5395 5390 5385 5380 5374 5368 5363 5357 5352 5347 5341 5336 5329 5323 5316 5309 5302 5296 5292 5288
5585 5584 5582 5581 5580 5578 5577 5576 5574 5572 5571 5569 5567 5565 5563 5561 5559 5557 5555 5552 5550 5548 5545 5542 5540 5537 5534 5531 5529 5526 5522 5519 5516 5514 5512 5510 5507 5505 5502 5499 5495 5491 5488 5485 5482 5480 5478 5476 5474 5471 5466 5460 5455 5450 5445 5440 5436 5431 5426 5422 5417 5413 5409 5405 5400 5395 5390 5386 5381 5375 5370 5364 5358 5353 5348 5342 5336 5330 5324 5317 5311 5303 5296 5291 5286 5281
5581 5580 5579 5578 5576 5575 5574 5572 5570 5569 5567 5565 5563 5561 5560 5557 5555 5553 5551 5548 5546 5544 5541 5539 5536 5533 5530 5527 5524 5521 5518 5515 5512 5510 5508 5506 5503 5501 5498 5495 5491 5487 5484 5481 5477 5475 5472 5469 5467 5465 5461 5458 5453 5447 5441 5436 5431 5427 5422 5417 5412 5408 5403 5399 5394 5390 5385 5381 5376 5370 5365 5359 5354 5348 5343 5337 5332 5326 5319 5312 5306 5298 5291 5285 5280 5275
5578 5577 5576 5574 5573 5571 5570 5569 5567 5565 5563 5561 5560 5558 5556 5554 5551 5549 5547 5544 5542 5540 5537 5534 5532 5529 5526 5523 5520 5517 5514 5511 5508 5506 5503 5501 5499 5496 5493 5490 5487 5483 5480 5476 5473 5470 5466 5463 5461 5458 5455 5452 5449 5444 5438 5432 5427 5422 5417 5412 5408 5403 5398 5393 5388 5384 5379 5375 5370 5365 5359 5354 5349 5343 5338 5333 5327 5321 5314 5307 5300 5293 5286 5280 5274 5270
5575 5573 5572 5571 5570 5568 5566 5565 5563 5561 5560 5558 5556 5554 5552 5550 5547 5545 5543 5541 5538 5536 5533 5530 5527 5525 5522 5519 5516 5513 5511 5507 5504 5501 5499 5496 5494 5491 5489 5486 5482 5479 5475 5471 5469 5466 5462 5458 5456 5453 5449 5446 5443 5440 5435 5429 5423 5417 5412 5407 5402 5397 5392 5388 5383 5378 5373 5369 5364 5359 5353 5348 5342 5337 5332 5327 5321 5315 5308 5301 5295 5288 5281 5276 5270 5265
5571 5570 5569 5568 5566 5565 5563 5561 5560 5558 5556 5554 5552 5550 5548 5546 5544 5541 5539 5536 5534 5531 5529 5526 5523 5520 5517 5515 5512 5510 5506 5503 5500 5497 5494 5492 5489 5487 5484 5481 5478 5474 5471 5466 5463 5460 5457 5454 5451 5447 5444 5440 5436 5433 5429 5425 5419 5414 5408 5403 5397 5392 5387 5382 5377 5372 5367 5362 5358 5353 5347 5341 5336 5331 5325 5320 5315 5309 5302 5296 5289 5283 5277 5271 5266 5261
5568 5567 5566 5564 5563 5561 5560 5558 5556 5555 5553 5551 5548 5546 5544 5542 5540 5537 5535 5533 5530 5527 5525 5522 5519 5516 5513 5511 5508 5505 5502 5499 5496 5493 5490 5487 5485 5482 5479 5476 5472 5469 5466 5462 5458 5454 5451 5448 5445 5441 5438 5435 5431 5427 5423 5419 5414 5409 5404 5399 5394 5388 5382 5376 5371 5366 5361 5356 5351 5346 5341 5335 5329 5324 5318 5313 5308 5302 5296 5290 5284 5278 5272 5267 5263 5259
5565 5563 5562 5561 5560 5558 5556 5554 5553 5551 5549 5547 5545 5543 5541 5538 5536 5534 5531 5528 5526 5523 5521 5518 5515 5512 5509 5506 5504 5501 5498 5495 5492 5489 5486 5482 5479 5477 5474 5471 5467 5464 5461 5457 5453 5449 5446 5442 5439 5436 5432 5428 5425 5421 5417 5413 5408 5403 5399 5395 5390 5385 5379 5373 5366 5361 5356 5351 5345 5340 5335 5329 5323 5318 5312 5307 5301 5296 5290 5284 5278 5272 5267 5262 5259 5256
5561 5560 5559 5557 5556 5554 5553 5551 5549 5547 5545 5543 5541 5539 5536 5534 5532 5530 5527 5524 5522 5519 5517 5514 5511 5509 5506 5502 5500 5497 5494 5491 5488 5484 5481 5477 5474 5471 5469 5466 5462 5459 5455 5451 5448 5444 5440 5436 5433 5429 5426 5422 5419 5415 5411 5407 5402 5397 5392 5389 5385 5381 5376 5369 5362 5356 5351 5346 5340 5334 5328 5323 5318 5312 5306 5301 5295 5289 5283 5277 5272 5267 5262 5258 5255 5253
5558 5556 5555 5554 5552 5551 5549 5547 5545 5543 5541 5539 5537 5535 5533 5531 5528 5525 5523 5520 5518 5515 5513 5511 5508 5505 5502 5499 5496 5493 5490 5486 5483 5480 5477 5473 5470 5467 5464 5461 5458 5454 5451 5446 5443 5439 5436 5431 5427 5423 5420 5416 5412 5409 5406 5401 5396 5391 5386 5382 5378 5375 5372 5366 5359 5352 5346 5341 5335 5329 5323 5317 5312 5307 5301 5296 5290 5283 5277 5272 5266 5261 5257 5254 5251 5249
5555 5553 5552 5550 5549 5547 5545 5543 5541 5539 5537 5535 5533 5531 5529 5526 5524 5521 5519 5516 5514 5511 5509 5507 5504 5501 5498 5495 5492 5489 5486 5482 5479 5476 5473 5469 5466 5463 5460 5456 5453 5450 5446 5442 5439 5435 5431 5427 5422 5418 5414 5411 5406 5403 5400 5396 5391 5386 5381 5376 5372 5369 5366 5362 5356 5349 5342 5336 5330 5324 5318 5312 5307 5302 5296 5291 5284 5278 5272 5266 5261 5256 5253 5250 5247 5246
5551 5550 5548 5546 5545 5543 5541 5539 5537 5535 5533 5531 5529 5527 5525 5523 5520 5518 5515 5513 5510 5508 5506 5503 5501 5498 5495 5491 5488 5485 5482 5479 5476 5472 5469 5466 5462 5459 5456 5453 5449 5446 5443 5439 5435 5431 5427 5423 5419 5414 5409 5405 5401 5398 5394 5390 5386 5381 5376 5371 5366 5362 5359 5356 5351 5345 5338 5332 5325 5319 5313 5307 5302 5297 5292 5286 5280 5274 5268 5262 5257 5253 5249 5246 5244 5242
5548 5546 5545 5543 5541 5539 5537 5535 5533 5531 5529 5527 5525 5523 5521 5519 5517 5514 5512 5510 5507 5505 5502 5500 5497 5495 5492 5489 5485 5482 5479 5476 5472 5469 5466 5462 5459 5456 5452 5449 5446 5442 5439 5436 5431 5427 5423 5419 5416 5411 5406 5401 5397 5392 5388 5385 5381 5377 5372 5366 5361 5357 5352 5349 5344 5340 5334 5328 5322 5316 5310 5304 5298 5293 5288 5282 5276 5269 5263 5258 5253 5249 5246 5243 5241 5240
5544 5542 5541 5539 5537 5535 5533 5531 5529 5527 5526 5523 5521 5519 5517 5515 5513 5511 5509 5506 5504 5501 5499 5496 5494 5491 5488 5486 5483 5480 5476 5473 5470 5466 5463 5459 5456 5453 5449 5446 5442 5438 5435 5432 5429 5424 5420 5415 5411 5407 5402 5398 5393 5388 5384 5379 5375 5372 5368 5363 5358 5353 5348 5344 5339 5334 5329 5323 5318 5312 5306 5300 5294 5289 5283 5277 5271 5265 5259 5254 5250 5246 5244 5241 5239 5237
5540 5539 5537 5535 5534 5532 5530 5528 5526 5524 5522 5520 5518 5516 5514 5511 5510 5507 5505 5503 5500 5498 5495 5493 5491 5488 5485 5482 5480 5477 5474 5471 5467 5463 5460 5456 5453 5450 5446 5442 5439 5435 5431 5428 5424 5421 5417 5412 5407 5402 5398 5394 5390 5385 5381 5375 5371 5367 5363 5359 5355 5350 5345 5340 5335 5329 5324 5319 5314 5308 5302 5296 5290 5284 5279 5273 5267 5261 5256 5251 5247 5244 5241 5240 5238 5236
5537 5535 5533 5532 5530 5528 5526 5524 5522 5520 5518 5516 5514 5512 5510 5508 5506 5504 5501 5499 5497 5494 5491 5489 5487 5484 5481 5479 5476 5474 5471 5467 5464 5461 5457 5454 5450 5446 5443 5439 5436 5432 5428 5424 5421 5416 5413 5409 5404 5399 5395 5390 5386 5381 5377 5372 5367 5363 5359 5356 5351 5347 5342 5337 5331 5326 5320 5315 5309 5303 5297 5291 5285 5280 5274 5269 5264 5258 5253 5249 5246 5242 5240 5238 5236 5235
5533 5532 5530 5528 5526 5525 5523 5521 5519 5517 5515 5513 5511 5509 5507 5505 5503 5500 5498 5496 5494 5491 5488 5486 5483 5481 5478 5475 5473 5470 5467 5464 5461 5458 5454 5451 5447 5444 5440 5436 5432 5429 5426 5422 5418 5414 5410 5405 5401 5396 5391 5386 5381 5378 5374 5370 5365 5360 5356 5352 5348 5344 5340 5334 5329 5323 5316 5311 5305 5299 5292 5286 5280 5274 5269 5265 5261 5256 5252 5248 5244 5241 5239 5237 5235 5234
5530 5528 5526 5525 5523 5521 5520 5518 5516 5514 5512 5510 5508 5506 5503 5501 5499 5497 5495 5492 5490 5488 5485 5483 5480 5477 5475 5472 5469 5466 5463 5461 5457 5454 5451 5448 5444 5441 5437 5433 5430 5426 5423 5419 5415 5411 5407 5403 5398 5393 5388 5382 5378 5373 5370 5367 5363 5358 5353 5349 5345 5340 5336 5331 5325 5319 5313 5307 5301 5294 5288 5282 5276 5271 5266 5261 5258 5254 5251 5247 5244 5241 5238 5236 5235 5233
5527 5525 5523 5522 5520 5518 5516 5515 5513 5511 5509 5507 5505 5502 5500 5498 5496 5494 5491 5489 5486 5484 5482 5479 5476 5474 5471 5468 5466 5462 5460 5456 5453 5451 5447 5444 5441 5438 5434 5431 5427 5424 5420 5417 5413 5409 5405 5401 5396 5391 5386 5380 5375 5370 5366 5362 5359 5356 5351 5346 5341 5336 5331 5326 5321 5315 5309 5303 5296 5290 5284 5278 5272 5267 5263 5259 5256 5253 5250 5247 5244 5241 5238 5236 5234 5233
5524 5522 5520 5519 5517 5515 5513 5511 5510 5508 5506 5504 5501 5499 5496 5494 5492 5490 5488 5486 5483 5481 5478 5476 5473 5471 5468 5465 5462 5459 5456 5453 5450 5447 5444 5441 5438 5435 5431 5428 5425 5421 5418 5414 5411 5407 5403 5399 5394 5388 5382 5377 5371 5366 5361 5357 5354 5351 5347 5343 5338 5333 5327 5322 5317 5311 5306 5299 5293 5287 5281 5275 5270 5265 5261 5258 5255 5252 5249 5247 5244 5241 5239 5237 5235 5234
5520 5519 5517 5515 5514 5512 5510 5508 5506 5504 5502 5500 5498 5496 5494 5491 5489 5486 5484 5482 5480 5477 5475 5472 5470 5467 5465 5461 5458 5456 5453 5450 5447 5444 5441 5438 5435 5431 5428 5425 5422 5419 5415 5411 5408 5405 5401 5397 5392 5386 5380 5373 5367 5362 5357 5353 5349 5346 5343 5339 5335 5330 5324 5319 5313 5308 5302 5296 5290 5284 5279 5273 5269 5265 5261 5258 5255 5252 5250 5247 5245 5242 5240 5238 5237 5236